Location: Domont
(49.0278°N, 2.3264°E)
Time: 11:25:51
(UTC+00:00)

DX 1 - Pass Details

Date: 27 June 2022
Orbit: 617 x 629 km, 98.4° (Epoch: 10 August)

Event Time Altitude Azimuth Distance (km) Brightness Sun altitude
Rises 22:58:43 0° 357° (N) 2,934 ? -16.6°
Reaches altitude 10° 23:02:35 10° 322° (NW) 2,019 ? -16.8°
Maximum altitude 23:03:46 11° 306° (NW) 1,950 ? -16.8°
Drops below altitude 10° 23:04:57 10° 290° (WNW) 2,015 ? -16.9°
Sets 23:08:48 0° 255° (WSW) 2,914 ? -17.0°
